Location: Luz Observatory
(34.5000°N, 117.2833°W)
Time: 12:23:23
(UTC-07:00)

Okean 3 Rocket - Visible Passes

Search period start: 30 June 2016 00:00
Search period end: 10 July 2016 00:00
Orbit: 616 x 644 km, 82.5° (Epoch: 30 June)

Date Brightness Start Highest point End Pass type
(mag) Time Alt. Az. Time Alt. Az. Time Alt. Az.
30 Jun 7.4 20:44:44 10° W 20:45:27 10° WNW 20:46:11 10° WNW visible
05 Jul 6.6 05:03:16 10° NNE 05:06:16 17° ENE 05:09:14 10° ESE visible
08 Jul 6.8 04:28:59 10° NE 04:30:54 12° ENE 04:32:49 10° E visible
09 Jul 6.0 04:48:20 10° NNE 04:52:05 26° ENE 04:55:46 10° SE visible
